{"data":{"norad_id":54204,"intl_designator":"2022-141AZ","name":"STARLINK-5241","alt_names":[],"object_type":"PAYLOAD","status":"ACTIVE","operator":null,"country":"US","launch_date":"2022-10-28","launch_site_code":"AFWTR","launch_vehicle":null,"mission":null,"orbit_class":"UNKNOWN","rcs_meters":null,"size_class":null,"mass_kg":null,"dimensions":null,"purposes":["comms"],"wikipedia_slug":null,"has_3d_model":false,"image_url":null,"decayed_at":null,"tle_current":{"epoch":"2026-05-24T23:54:19.348992Z","epoch_age_seconds":78670,"freshness":"FRESH","line1":"1 54204U 22141AZ  26144.99605728 -.00000826  00000+0 -33805-4 0  9998","line2":"2 54204  53.2135  11.1338 0001448  90.2154 269.9004 15.08839123197525","mean_motion":15.08839123,"eccentricity":0.0001448,"inclination_deg":53.2135,"raan_deg":11.1338,"arg_perigee_deg":90.2154,"mean_anomaly_deg":269.9004,"bstar":-3.3805e-5,"rev_number":19752,"period_min":95.437610150039,"perigee_km":538.74436013508,"apogee_km":540.74777907203,"semimajor_km":6917.8830696036,"source":"CELESTRAK","updated_at":"2026-05-25T13:38:17.686203Z"}}}